Back to catalog

STARLINK-4710

AliveCommunicationsVLEO
NORAD 53799·PAYLOAD·🇺🇸 United States

Launched Sep 11, 2022 from Cape Canaveral Space Force Station

Loading…

Next Passes (next 24 hours)

TLE

FreshSource: CelesTrak SupGP

Epoch: Sep 14, 2026, 13:27 UTC

1 53799C 22111AC  26257.56090278  .00036709  00000+0  11139-2 0  2577
2 53799  53.1569 121.7995 0001260  93.9224   9.9293 15.33531097    16

Track STARLINK-4710 in real time with AllMySat

Download on the App Store